Flag for Albania Weather past 2 weeks in Tirana, Albania

Now
50 °F

Light rain. Mostly cloudy.


Feels Like: 49 °F
Forecast: 48 / 67 °F
Wind: 3 mph from Southeast

Location: Tirana Airport


UV Index: 3 (Moderate)

Visibility: N/A


Pressure: 29.71 "Hg

Humidity: 82%

Dew point: 45 °F

Location of TiranaLocation

Historic Weather in Tirana

°F

Tirana temperature yesterday

Maximum temperature yesterday: 54 °F (at 11:20 AM)
Minimum temperature yesterday: 39 °F (at 1:50 AM)
Average temperature yesterday: 47 °F

Past Weeks' High & Low Weather Summary

 TemperatureHumidityPressure
High73 °F (Apr 7, 1:50 PM)94% (Apr 4, 1:20 AM)30.09 "Hg (Apr 4, 1:20 AM)
Low39 °F (Apr 12, 4:20 AM)26% (Apr 10, 3:20 PM)29.65 "Hg (Apr 16, 4:50 AM)
Average54 °F73%29.90 "Hg
* Reported Apr 4 12:20 AM — Apr 19 12:50 AM, Tirana, Weather by CustomWeather, © 2014

Note: Actual official high and low records may vary slightly from our data, if they occured in-between our weather recording intervals... More about our weather records

Advertising

Historic Weather Conditions — Data for Previous 24 hours

 ConditionsComfort  
Time TempWeatherWind HumidityBarometerVisibility
12:50 AM
Apr 19
48 °FLight rain. Mostly cloudy.6 mph87%29.71 "HgN/A
12:20 AM50 °FLight rain. Mostly cloudy.5 mph82%29.71 "HgN/A
11:50 PM
Apr 18
50 °FLight rain. Mostly cloudy.5 mph82%29.71 "HgN/A
11:20 PM50 °FMostly cloudy.3 mph88%29.71 "HgN/A
10:50 PM50 °FMostly cloudy.5 mph88%29.71 "HgN/A
10:20 PM50 °FMostly cloudy.5 mph88%29.71 "HgN/A
9:50 PM50 °FMostly cloudy.5 mph82%29.71 "HgN/A
9:20 PM50 °FMostly cloudy.6 mph82%29.71 "HgN/A
8:50 PM50 °FMostly cloudy.5 mph82%29.71 "HgN/A
8:20 PM50 °FLight rain. Mostly cloudy.5 mph88%29.71 "HgN/A
7:50 PM50 °FLight rain. Mostly cloudy.5 mph88%29.71 "HgN/A
7:20 PM50 °FLight rain. More clouds than sun.5 mph88%29.71 "HgN/A
6:50 PM50 °FLight rain. Overcast.6 mph82%29.71 "HgN/A
6:20 PM50 °FLight rain. More clouds than sun.3 mph82%29.68 "HgN/A
5:50 PM50 °FLight rain. Mostly cloudy.3 mph82%29.71 "HgN/A
5:20 PM52 °FLight rain. Mostly cloudy.5 mph77%29.71 "HgN/A
4:50 PM52 °FLight rain. Mostly cloudy.5 mph77%29.68 "HgN/A
4:20 PM52 °FLight rain. Mostly cloudy.5 mph77%29.71 "HgN/A
3:20 PM52 °FLight rain. Mostly cloudy.6 mph77%29.71 "HgN/A
2:50 PM52 °FLight rain. Mostly cloudy.3 mph77%29.71 "HgN/A
2:20 PM52 °FLight rain. Mostly cloudy.2 mph77%29.71 "HgN/A
1:50 PM52 °FLight rain. More clouds than sun.5 mph77%29.71 "HgN/A
1:20 PM52 °FLight rain. More clouds than sun.5 mph72%29.68 "HgN/A
12:50 PM52 °FLight rain. More clouds than sun.5 mph72%29.68 "HgN/A
12:20 PM54 °FLight rain. More clouds than sun.5 mph63%29.68 "HgN/A
11:50 AM54 °FOvercast.5 mph58%29.68 "HgN/A
11:20 AM54 °FPartly sunny.5 mph67%29.68 "HgN/A
10:50 AM52 °FMostly cloudy.7 mph67%29.68 "HgN/A
10:20 AM50 °FMostly cloudy.5 mph76%29.68 "HgN/A
9:50 AM48 °FMostly cloudy.5 mph87%29.68 "HgN/A
9:20 AM46 °FMostly cloudy.5 mph87%29.68 "HgN/A
8:50 AM46 °FMostly cloudy.6 mph87%29.68 "HgN/A
8:20 AM46 °FLight rain. Overcast.9 mph87%29.68 "HgN/A
7:50 AM45 °FLight rain. More clouds than sun.3 mph87%29.68 "HgN/A
7:20 AM45 °FLight rain. Overcast.5 mph87%29.68 "HgN/A
6:50 AM43 °FLight rain. Mostly cloudy.5 mph93%29.68 "HgN/A
6:20 AM43 °FOvercast.2 mph87%29.68 "HgN/A
5:50 AM41 °FPartly cloudy.3 mph93%29.68 "HgN/A
5:20 AM39 °FPassing clouds.2 mph93%29.68 "HgN/A
4:50 AM41 °FPassing clouds.2 mph93%29.68 "HgN/A
4:20 AM41 °FPassing clouds.2 mph87%29.71 "HgN/A
3:50 AM41 °FPassing clouds.3 mph87%29.71 "HgN/A
3:20 AM41 °FPassing clouds.3 mph93%29.71 "HgN/A
2:50 AM39 °FPassing clouds.2 mph93%29.71 "Hg5 mi
2:20 AM39 °FPassing clouds.6 mph93%29.74 "Hg5 mi
Weather by CustomWeather, © 2014

See weather overview